Time,TemperatureF,DewpointF,PressureIn,WindDirection,WindDirectionDegrees,WindSpeedMPH,WindSpeedGustMPH,Humidity,HourlyPrecipIn,Conditions,Clouds,dailyrainin,SoftwareType,DateUTC
2013-10-14 00:03:00,70.1,66.0,30.01,NE,51,2.0,6.0,87,0.00,,,0.00,Wunderground v.1.15,2013-10-14 05:03:00,
2013-10-14 00:08:00,70.0,66.0,30.01,NE,51,2.0,2.0,87,0.00,,,0.00,Wunderground v.1.15,2013-10-14 05:08:00,
2013-10-14 00:13:00,70.1,66.0,30.01,NE,55,2.0,3.0,87,0.00,,,0.00,Wunderground v.1.15,2013-10-14 05:13:00,
2013-10-14 00:18:00,70.1,66.0,30.01,NE,42,2.0,2.0,87,0.00,,,0.00,Wunderground v.1.15,2013-10-14 05:18:00,
2013-10-14 00:23:00,70.2,66.1,30.01,NE,41,2.0,2.0,87,0.00,,,0.00,Wunderground v.1.15,2013-10-14 05:23:00,
2013-10-14 00:28:00,70.2,66.1,30.01,NE,47,2.0,2.0,87,0.00,,,0.00,Wunderground v.1.15,2013-10-14 05:28:00,
2013-10-14 00:33:00,70.1,66.0,30.01,NE,41,2.0,4.0,87,0.00,,,0.00,Wunderground v.1.15,2013-10-14 05:33:00,
2013-10-14 00:38:00,70.1,66.0,30.01,NE,46,2.0,4.0,87,0.00,,,0.00,Wunderground v.1.15,2013-10-14 05:38:00,
2013-10-14 00:43:00,70.1,66.0,30.00,NE,36,2.0,4.0,87,0.00,,,0.00,Wunderground v.1.15,2013-10-14 05:43:00,
2013-10-14 00:48:00,70.1,66.4,30.00,NE,37,2.0,4.0,88,0.00,,,0.00,Wunderground v.1.15,2013-10-14 05:48:00,
2013-10-14 00:53:00,70.0,66.3,30.00,NE,37,2.0,4.0,88,0.00,,,0.00,Wunderground v.1.15,2013-10-14 05:53:00,
2013-10-14 00:58:00,69.8,66.1,30.00,NE,37,2.0,2.0,88,0.00,,,0.00,Wunderground v.1.15,2013-10-14 05:58:00,
2013-10-14 01:03:00,69.7,66.0,30.00,ENE,57,1.0,4.0,88,0.00,,,0.00,Wunderground v.1.15,2013-10-14 06:03:00,
2013-10-14 01:08:00,69.5,65.8,30.00,NE,53,1.0,4.0,88,0.00,,,0.00,Wunderground v.1.15,2013-10-14 06:08:00,
2013-10-14 01:13:00,69.3,65.6,30.00,NE,55,2.0,4.0,88,0.00,,,0.00,Wunderground v.1.15,2013-10-14 06:13:00,
2013-10-14 01:18:00,69.1,65.7,30.00,NE,42,2.0,4.0,89,0.00,,,0.00,Wunderground v.1.15,2013-10-14 06:18:00,
2013-10-14 01:23:00,69.0,65.6,30.00,NE,48,2.0,4.0,89,0.00,,,0.00,Wunderground v.1.15,2013-10-14 06:23:00,
2013-10-14 01:28:00,69.0,65.6,30.00,NE,45,2.0,4.0,89,0.00,,,0.00,Wunderground v.1.15,2013-10-14 06:28:00,
2013-10-14 01:33:00,69.0,65.6,30.00,NE,55,2.0,4.0,89,0.00,,,0.00,Wunderground v.1.15,2013-10-14 06:33:00,
2013-10-14 01:38:00,69.0,65.6,30.00,NE,40,2.0,4.0,89,0.00,,,0.00,Wunderground v.1.15,2013-10-14 06:38:00,
2013-10-14 01:43:00,69.0,65.6,30.00,NE,49,2.0,4.0,89,0.00,,,0.00,Wunderground v.1.15,2013-10-14 06:43:00,
2013-10-14 01:48:00,69.0,65.6,30.00,NE,46,2.0,4.0,89,0.00,,,0.00,Wunderground v.1.15,2013-10-14 06:48:00,
2013-10-14 01:53:00,68.9,65.5,30.00,NE,38,2.0,4.0,89,0.00,,,0.00,Wunderground v.1.15,2013-10-14 06:53:00,
2013-10-14 01:58:00,68.7,65.3,30.00,NNE,32,2.0,4.0,89,0.00,,,0.00,Wunderground v.1.15,2013-10-14 06:58:00,
2013-10-14 02:03:00,68.6,65.2,30.00,NNE,32,2.0,4.0,89,0.00,,,0.00,Wunderground v.1.15,2013-10-14 07:03:00,
2013-10-14 02:08:00,68.6,65.2,30.00,NNE,29,2.0,4.0,89,0.00,,,0.00,Wunderground v.1.15,2013-10-14 07:08:00,
2013-10-14 02:13:00,68.5,65.1,30.00,NNE,29,2.0,4.0,89,0.00,,,0.00,Wunderground v.1.15,2013-10-14 07:13:00,
2013-10-14 02:18:00,68.5,65.1,30.00,NNE,29,2.0,4.0,89,0.00,,,0.00,Wunderground v.1.15,2013-10-14 07:18:00,
2013-10-14 02:23:00,68.4,65.0,30.00,NNE,29,2.0,4.0,89,0.00,,,0.00,Wunderground v.1.15,2013-10-14 07:23:00,
2013-10-14 02:28:00,68.2,65.2,30.00,NNE,29,2.0,4.0,90,0.00,,,0.00,Wunderground v.1.15,2013-10-14 07:28:00,
2013-10-14 02:33:00,68.1,65.1,30.00,NNE,29,2.0,4.0,90,0.00,,,0.00,Wunderground v.1.15,2013-10-14 07:33:00,
2013-10-14 02:43:00,67.8,64.8,30.00,NE,42,1.0,4.0,90,0.00,,,0.00,Wunderground v.1.15,2013-10-14 07:43:00,
2013-10-14 02:48:00,67.7,64.7,30.00,NE,42,1.0,4.0,90,0.00,,,0.00,Wunderground v.1.15,2013-10-14 07:48:00,
2013-10-14 02:53:00,67.7,64.7,30.00,NE,41,1.0,4.0,90,0.00,,,0.00,Wunderground v.1.15,2013-10-14 07:53:00,
2013-10-14 02:58:00,67.7,65.0,30.00,NE,36,2.0,4.0,91,0.00,,,0.00,Wunderground v.1.15,2013-10-14 07:58:00,
2013-10-14 03:03:00,67.6,64.9,30.00,NE,36,2.0,4.0,91,0.00,,,0.00,Wunderground v.1.15,2013-10-14 08:03:00,
2013-10-14 03:08:00,67.5,64.5,30.00,NNE,32,2.0,4.0,90,0.00,,,0.00,Wunderground v.1.15,2013-10-14 08:08:00,
2013-10-14 03:13:00,67.5,64.5,30.00,NNE,30,2.0,4.0,90,0.00,,,0.00,Wunderground v.1.15,2013-10-14 08:13:00,
2013-10-14 03:18:00,67.5,64.5,30.00,NNE,22,2.0,4.0,90,0.00,,,0.00,Wunderground v.1.15,2013-10-14 08:18:00,
2013-10-14 03:23:00,67.6,64.6,30.00,NNE,30,3.0,4.0,90,0.00,,,0.00,Wunderground v.1.15,2013-10-14 08:23:00,
2013-10-14 03:28:00,67.6,64.6,30.00,NE,38,3.0,4.0,90,0.00,,,0.00,Wunderground v.1.15,2013-10-14 08:28:00,
2013-10-14 03:38:00,67.6,64.6,30.00,NE,46,3.0,3.0,90,0.00,,,0.00,Wunderground v.1.15,2013-10-14 08:38:00,
2013-10-14 03:48:00,67.6,64.2,29.99,NE,44,2.0,4.0,89,0.00,,,0.00,Wunderground v.1.15,2013-10-14 08:48:00,
2013-10-14 03:58:00,67.6,64.2,29.99,NE,35,3.0,3.0,89,0.00,,,0.00,Wunderground v.1.15,2013-10-14 08:58:00,
2013-10-14 04:03:00,67.6,64.2,29.99,NE,49,3.0,4.0,89,0.00,,,0.00,Wunderground v.1.15,2013-10-14 09:03:00,
2013-10-14 04:08:00,67.6,64.2,29.99,NE,50,3.0,3.0,89,0.00,,,0.00,Wunderground v.1.15,2013-10-14 09:08:00,
2013-10-14 04:13:00,67.6,64.2,29.99,NNE,26,3.0,4.0,89,0.00,,,0.00,Wunderground v.1.15,2013-10-14 09:13:00,
2013-10-14 04:18:00,67.6,64.2,29.99,NE,34,3.0,3.0,89,0.00,,,0.00,Wunderground v.1.15,2013-10-14 09:18:00,
2013-10-14 04:23:00,67.5,64.1,29.99,NNE,18,3.0,4.0,89,0.00,,,0.00,Wunderground v.1.15,2013-10-14 09:23:00,
2013-10-14 04:28:00,67.5,64.1,30.00,NNE,30,3.0,4.0,89,0.00,,,0.00,Wunderground v.1.15,2013-10-14 09:28:00,
2013-10-14 04:33:00,67.4,64.0,30.00,NNE,24,3.0,4.0,89,0.00,,,0.00,Wunderground v.1.15,2013-10-14 09:33:00,
2013-10-14 04:38:00,67.4,64.0,30.00,NE,36,2.0,4.0,89,0.00,,,0.00,Wunderground v.1.15,2013-10-14 09:38:00,
2013-10-14 04:43:00,67.4,64.0,30.00,NNE,28,3.0,4.0,89,0.00,,,0.00,Wunderground v.1.15,2013-10-14 09:43:00,
2013-10-14 04:48:00,67.3,63.9,30.00,NE,37,3.0,4.0,89,0.00,,,0.00,Wunderground v.1.15,2013-10-14 09:48:00,
2013-10-14 04:53:00,67.2,64.2,30.00,NNE,26,3.0,4.0,90,0.00,,,0.00,Wunderground v.1.15,2013-10-14 09:53:00,
2013-10-14 04:58:00,67.2,64.2,30.00,NE,39,3.0,3.0,90,0.00,,,0.00,Wunderground v.1.15,2013-10-14 09:58:00,
2013-10-14 05:03:00,67.1,64.1,30.00,NE,37,3.0,3.0,90,0.00,,,0.00,Wunderground v.1.15,2013-10-14 10:03:00,
2013-10-14 05:13:00,66.9,63.9,30.00,NNE,30,3.0,3.0,90,0.00,,,0.00,Wunderground v.1.15,2013-10-14 10:13:00,
2013-10-14 05:18:00,66.8,63.8,30.00,NNE,30,3.0,3.0,90,0.00,,,0.00,Wunderground v.1.15,2013-10-14 10:18:00,
2013-10-14 05:23:00,66.7,63.7,30.00,NNE,30,2.0,3.0,90,0.00,,,0.00,Wunderground v.1.15,2013-10-14 10:23:00,
2013-10-14 05:28:00,66.6,63.6,30.00,NE,34,2.0,2.0,90,0.00,,,0.00,Wunderground v.1.15,2013-10-14 10:28:00,
2013-10-14 05:33:00,66.5,63.8,30.00,NE,49,2.0,4.0,91,0.00,,,0.00,Wunderground v.1.15,2013-10-14 10:33:00,
2013-10-14 05:38:00,66.5,63.8,30.00,NE,34,2.0,4.0,91,0.00,,,0.00,Wunderground v.1.15,2013-10-14 10:38:00,
2013-10-14 05:43:00,66.5,63.8,30.00,NNE,30,2.0,4.0,91,0.00,,,0.00,Wunderground v.1.15,2013-10-14 10:43:00,
2013-10-14 05:48:00,66.5,63.8,30.00,NE,41,3.0,3.0,91,0.00,,,0.00,Wunderground v.1.15,2013-10-14 10:48:00,
2013-10-14 05:53:00,66.5,63.5,30.00,NE,42,3.0,4.0,90,0.00,,,0.00,Wunderground v.1.15,2013-10-14 10:53:00,
2013-10-14 05:58:00,66.5,63.5,30.01,NE,34,3.0,3.0,90,0.00,,,0.00,Wunderground v.1.15,2013-10-14 10:58:00,
2013-10-14 06:03:00,66.3,63.3,30.01,NNE,32,2.0,4.0,90,0.00,,,0.00,Wunderground v.1.15,2013-10-14 11:03:00,
2013-10-14 06:08:00,66.3,63.6,30.01,NE,39,2.0,4.0,91,0.00,,,0.00,Wunderground v.1.15,2013-10-14 11:08:00,
2013-10-14 06:13:00,66.1,63.4,30.01,NE,49,2.0,4.0,91,0.00,,,0.00,Wunderground v.1.15,2013-10-14 11:13:00,
2013-10-14 06:18:00,66.1,63.4,30.01,NE,45,2.0,4.0,91,0.00,,,0.00,Wunderground v.1.15,2013-10-14 11:18:00,
2013-10-14 06:23:00,65.9,63.2,30.01,NE,46,2.0,4.0,91,0.00,,,0.00,Wunderground v.1.15,2013-10-14 11:23:00,
2013-10-14 06:28:00,65.9,63.2,30.00,NE,44,2.0,4.0,91,0.00,,,0.00,Wunderground v.1.15,2013-10-14 11:28:00,
2013-10-14 06:33:00,65.8,63.1,30.00,NE,55,2.0,4.0,91,0.00,,,0.00,Wunderground v.1.15,2013-10-14 11:33:00,
2013-10-14 06:38:00,65.7,63.0,30.00,NE,38,2.0,4.0,91,0.00,,,0.00,Wunderground v.1.15,2013-10-14 11:38:00,
2013-10-14 06:43:00,65.7,63.0,30.01,NE,34,2.0,4.0,91,0.00,,,0.00,Wunderground v.1.15,2013-10-14 11:43:00,
2013-10-14 06:48:00,65.6,62.9,30.01,NE,34,2.0,2.0,91,0.00,,,0.00,Wunderground v.1.15,2013-10-14 11:48:00,
2013-10-14 06:53:00,65.6,62.9,30.01,NE,37,2.0,4.0,91,0.00,,,0.00,Wunderground v.1.15,2013-10-14 11:53:00,
2013-10-14 06:58:00,65.5,62.8,30.02,NE,37,2.0,2.0,91,0.00,,,0.00,Wunderground v.1.15,2013-10-14 11:58:00,
2013-10-14 07:03:00,65.3,62.6,30.02,NE,44,1.0,4.0,91,0.00,,,0.00,Wunderground v.1.15,2013-10-14 12:03:00,
2013-10-14 07:08:00,65.3,62.6,30.02,NE,51,1.0,4.0,91,0.00,,,0.00,Wunderground v.1.15,2013-10-14 12:08:00,
2013-10-14 07:13:00,65.2,62.8,30.01,NE,51,1.0,4.0,92,0.00,,,0.00,Wunderground v.1.15,2013-10-14 12:13:00,
2013-10-14 07:18:00,65.2,62.8,30.01,NE,46,1.0,1.0,92,0.00,,,0.00,Wunderground v.1.15,2013-10-14 12:18:00,
2013-10-14 07:23:00,65.1,62.7,30.01,NE,46,1.0,4.0,92,0.00,,,0.00,Wunderground v.1.15,2013-10-14 12:23:00,
2013-10-14 07:28:00,65.1,62.7,30.01,NE,46,1.0,4.0,92,0.00,,,0.00,Wunderground v.1.15,2013-10-14 12:28:00,
2013-10-14 07:33:00,65.2,62.8,30.01,NE,46,1.0,4.0,92,0.00,,,0.00,Wunderground v.1.15,2013-10-14 12:33:00,
2013-10-14 07:38:00,65.2,62.8,30.01,NE,46,1.0,1.0,92,0.00,,,0.00,Wunderground v.1.15,2013-10-14 12:38:00,
2013-10-14 07:43:00,65.1,62.7,30.01,NE,46,0.0,4.0,92,0.00,,,0.00,Wunderground v.1.15,2013-10-14 12:43:00,
2013-10-14 07:48:00,65.1,62.7,30.01,NE,46,0.0,4.0,92,0.00,,,0.00,Wunderground v.1.15,2013-10-14 12:48:00,
2013-10-14 07:53:00,65.1,62.7,30.01,NE,45,0.0,4.0,92,0.00,,,0.00,Wunderground v.1.15,2013-10-14 12:53:00,
2013-10-14 08:03:00,65.8,63.4,30.01,NE,51,2.0,4.0,92,0.00,,,0.00,Wunderground v.1.15,2013-10-14 13:03:00,
2013-10-14 08:08:00,66.2,63.8,30.01,NE,35,2.0,2.0,92,0.00,,,0.00,Wunderground v.1.15,2013-10-14 13:08:00,
2013-10-14 08:13:00,66.6,63.9,30.01,NE,48,2.0,3.0,91,0.00,,,0.00,Wunderground v.1.15,2013-10-14 13:13:00,
2013-10-14 08:18:00,67.0,64.0,30.01,NE,36,3.0,4.0,90,0.00,,,0.00,Wunderground v.1.15,2013-10-14 13:18:00,
2013-10-14 08:23:00,67.3,64.3,30.01,ENE,57,3.0,4.0,90,0.00,,,0.00,Wunderground v.1.15,2013-10-14 13:23:00,
2013-10-14 08:28:00,67.6,64.2,30.01,NE,55,3.0,4.0,89,0.00,,,0.00,Wunderground v.1.15,2013-10-14 13:28:00,
2013-10-14 08:33:00,67.8,64.4,30.01,East,81,3.0,4.0,89,0.00,,,0.00,Wunderground v.1.15,2013-10-14 13:33:00,
2013-10-14 08:38:00,68.1,64.7,30.01,NE,51,2.0,4.0,89,0.00,,,0.00,Wunderground v.1.15,2013-10-14 13:38:00,
2013-10-14 08:43:00,68.4,64.7,30.01,NE,37,2.0,4.0,88,0.00,,,0.00,Wunderground v.1.15,2013-10-14 13:43:00,
2013-10-14 08:48:00,68.6,64.9,30.01,NE,37,2.0,4.0,88,0.00,,,0.00,Wunderground v.1.15,2013-10-14 13:48:00,
2013-10-14 08:53:00,68.9,64.9,30.01,NE,41,3.0,4.0,87,0.00,,,0.00,Wunderground v.1.15,2013-10-14 13:53:00,
2013-10-14 08:58:00,69.2,65.2,30.02,NE,40,3.0,3.0,87,0.00,,,0.00,Wunderground v.1.15,2013-10-14 13:58:00,
2013-10-14 09:03:00,69.5,65.5,30.02,ENE,61,3.0,5.0,87,0.00,,,0.00,Wunderground v.1.15,2013-10-14 14:03:00,
2013-10-14 09:08:00,69.8,65.4,30.02,NE,55,4.0,4.0,86,0.00,,,0.00,Wunderground v.1.15,2013-10-14 14:08:00,
2013-10-14 09:13:00,70.0,65.3,30.02,NNE,22,4.0,4.0,85,0.00,,,0.00,Wunderground v.1.15,2013-10-14 14:13:00,
2013-10-14 09:18:00,70.4,66.0,30.02,NNE,22,3.0,4.0,86,0.00,,,0.00,Wunderground v.1.15,2013-10-14 14:18:00,
2013-10-14 09:23:00,70.7,65.6,30.02,NE,41,3.0,6.0,84,0.00,,,0.00,Wunderground v.1.15,2013-10-14 14:23:00,
2013-10-14 09:28:00,70.9,65.8,30.02,NNE,32,3.0,3.0,84,0.00,,,0.00,Wunderground v.1.15,2013-10-14 14:28:00,
2013-10-14 09:33:00,71.1,66.0,30.02,ENE,57,3.0,4.0,84,0.00,,,0.00,Wunderground v.1.15,2013-10-14 14:33:00,
2013-10-14 09:38:00,71.4,66.3,30.02,ESE,107,2.0,2.0,84,0.00,,,0.00,Wunderground v.1.15,2013-10-14 14:38:00,
2013-10-14 09:43:00,71.8,66.4,30.03,ESE,103,2.0,3.0,83,0.00,,,0.00,Wunderground v.1.15,2013-10-14 14:43:00,
2013-10-14 09:48:00,72.2,66.4,30.03,NNE,30,3.0,4.0,82,0.00,,,0.00,Wunderground v.1.15,2013-10-14 14:48:00,
2013-10-14 09:53:00,72.7,66.9,30.03,NNE,33,2.0,4.0,82,0.00,,,0.00,Wunderground v.1.15,2013-10-14 14:53:00,
2013-10-14 09:58:00,73.3,66.8,30.03,East,98,2.0,4.0,80,0.00,,,0.00,Wunderground v.1.15,2013-10-14 14:58:00,
2013-10-14 10:03:00,73.7,66.4,30.03,NE,55,3.0,4.0,78,0.00,,,0.00,Wunderground v.1.15,2013-10-14 15:03:00,
2013-10-14 10:08:00,74.2,66.9,30.03,NE,36,2.0,2.0,78,0.00,,,0.00,Wunderground v.1.15,2013-10-14 15:08:00,
2013-10-14 10:13:00,74.7,67.0,30.02,ENE,75,2.0,4.0,77,0.00,,,0.00,Wunderground v.1.15,2013-10-14 15:13:00,
2013-10-14 10:18:00,75.2,66.7,30.02,ENE,63,2.0,2.0,75,0.00,,,0.00,Wunderground v.1.15,2013-10-14 15:18:00,
2013-10-14 10:28:00,76.1,66.4,30.02,South,181,2.0,2.0,72,0.00,,,0.00,Wunderground v.1.15,2013-10-14 15:28:00,
2013-10-14 10:33:00,76.9,66.8,30.02,ESE,117,2.0,4.0,71,0.00,,,0.00,Wunderground v.1.15,2013-10-14 15:33:00,
2013-10-14 10:38:00,77.7,66.3,30.02,NE,40,2.0,2.0,68,0.00,,,0.00,Wunderground v.1.15,2013-10-14 15:38:00,
2013-10-14 10:43:00,78.3,66.4,30.02,ESE,110,2.0,3.0,67,0.00,,,0.00,Wunderground v.1.15,2013-10-14 15:43:00,
2013-10-14 10:48:00,79.0,67.1,30.02,NE,44,2.0,2.0,67,0.00,,,0.00,Wunderground v.1.15,2013-10-14 15:48:00,
2013-10-14 10:53:00,79.1,66.3,30.02,ESE,103,2.0,4.0,65,0.00,,,0.00,Wunderground v.1.15,2013-10-14 15:53:00,
2013-10-14 11:03:00,79.2,66.4,30.01,NNE,21,2.0,4.0,65,0.00,,,0.00,Wunderground v.1.15,2013-10-14 16:03:00,
2013-10-14 11:08:00,79.5,65.8,30.01,NNE,20,2.0,4.0,63,0.00,,,0.00,Wunderground v.1.15,2013-10-14 16:08:00,
2013-10-14 11:13:00,79.7,66.0,30.01,ESE,102,3.0,4.0,63,0.00,,,0.00,Wunderground v.1.15,2013-10-14 16:13:00,
2013-10-14 11:18:00,80.3,66.1,30.01,ENE,59,2.0,4.0,62,0.00,,,0.00,Wunderground v.1.15,2013-10-14 16:18:00,
2013-10-14 11:23:00,80.2,65.1,30.01,NE,49,2.0,4.0,60,0.00,,,0.00,Wunderground v.1.15,2013-10-14 16:23:00,
2013-10-14 11:28:00,79.9,65.2,30.01,NE,53,3.0,4.0,61,0.00,,,0.00,Wunderground v.1.15,2013-10-14 16:28:00,
2013-10-14 11:33:00,80.0,65.8,30.01,NE,42,3.0,4.0,62,0.00,,,0.00,Wunderground v.1.15,2013-10-14 16:33:00,
2013-10-14 11:38:00,80.3,65.1,30.01,East,90,3.0,3.0,60,0.00,,,0.00,Wunderground v.1.15,2013-10-14 16:38:00,
2013-10-14 11:43:00,81.4,65.7,30.00,NE,55,2.0,4.0,59,0.00,,,0.00,Wunderground v.1.15,2013-10-14 16:43:00,
2013-10-14 11:48:00,82.5,65.2,30.00,NE,36,2.0,4.0,56,0.00,,,0.00,Wunderground v.1.15,2013-10-14 16:48:00,
2013-10-14 11:53:00,82.6,64.8,30.00,ENE,57,2.0,4.0,55,0.00,,,0.00,Wunderground v.1.15,2013-10-14 16:53:00,
2013-10-14 11:58:00,82.7,64.9,30.00,ESE,119,2.0,2.0,55,0.00,,,0.00,Wunderground v.1.15,2013-10-14 16:58:00,
2013-10-14 12:03:00,82.7,64.9,30.00,NNE,26,2.0,3.0,55,0.00,,,0.00,Wunderground v.1.15,2013-10-14 17:03:00,
2013-10-14 12:08:00,82.1,64.3,30.00,NNE,26,3.0,4.0,55,0.00,,,0.00,Wunderground v.1.15,2013-10-14 17:08:00,
2013-10-14 12:13:00,81.4,64.2,30.00,NNE,15,4.0,4.0,56,0.00,,,0.00,Wunderground v.1.15,2013-10-14 17:13:00,
2013-10-14 12:18:00,81.1,63.9,30.00,NE,45,4.0,4.0,56,0.00,,,0.00,Wunderground v.1.15,2013-10-14 17:18:00,
2013-10-14 12:23:00,81.2,63.5,30.00,NE,49,4.0,4.0,55,0.00,,,0.00,Wunderground v.1.15,2013-10-14 17:23:00,
2013-10-14 12:28:00,81.4,63.7,29.99,NNW,340,3.0,5.0,55,0.00,,,0.00,Wunderground v.1.15,2013-10-14 17:28:00,
2013-10-14 12:33:00,81.7,63.4,29.99,NE,51,4.0,5.0,54,0.00,,,0.00,Wunderground v.1.15,2013-10-14 17:33:00,
2013-10-14 12:38:00,81.7,63.4,29.99,NE,53,4.0,4.0,54,0.00,,,0.00,Wunderground v.1.15,2013-10-14 17:38:00,
2013-10-14 12:43:00,82.1,63.3,29.98,NE,44,3.0,4.0,53,0.00,,,0.00,Wunderground v.1.15,2013-10-14 17:43:00,
2013-10-14 12:48:00,82.1,63.3,29.98,NE,51,3.0,3.0,53,0.00,,,0.00,Wunderground v.1.15,2013-10-14 17:48:00,
2013-10-14 12:53:00,82.2,64.4,29.98,ENE,60,3.0,5.0,55,0.00,,,0.00,Wunderground v.1.15,2013-10-14 17:53:00,
2013-10-14 12:58:00,82.1,62.7,29.97,ENE,63,3.0,4.0,52,0.00,,,0.00,Wunderground v.1.15,2013-10-14 17:58:00,
2013-10-14 13:03:00,82.9,63.5,29.97,North,11,3.0,4.0,52,0.00,,,0.00,Wunderground v.1.15,2013-10-14 18:03:00,
2013-10-14 13:13:00,84.0,63.9,29.96,NE,48,3.0,5.0,51,0.00,,,0.00,Wunderground v.1.15,2013-10-14 18:13:00,
2013-10-14 13:18:00,83.7,64.2,29.96,East,98,3.0,3.0,52,0.00,,,0.00,Wunderground v.1.15,2013-10-14 18:18:00,
2013-10-14 13:23:00,83.9,63.3,29.96,NE,53,2.0,4.0,50,0.00,,,0.00,Wunderground v.1.15,2013-10-14 18:23:00,
2013-10-14 13:28:00,84.6,62.7,29.95,East,87,2.0,4.0,48,0.00,,,0.00,Wunderground v.1.15,2013-10-14 18:28:00,
2013-10-14 13:33:00,84.8,63.5,29.95,ENE,58,2.0,4.0,49,0.00,,,0.00,Wunderground v.1.15,2013-10-14 18:33:00,
2013-10-14 13:38:00,84.6,63.3,29.95,NE,45,2.0,4.0,49,0.00,,,0.00,Wunderground v.1.15,2013-10-14 18:38:00,
2013-10-14 13:43:00,84.7,63.4,29.94,NE,51,2.0,4.0,49,0.00,,,0.00,Wunderground v.1.15,2013-10-14 18:43:00,
2013-10-14 13:48:00,84.5,63.8,29.94,NNE,22,2.0,4.0,50,0.00,,,0.00,Wunderground v.1.15,2013-10-14 18:48:00,
2013-10-14 13:53:00,84.0,63.9,29.94,NNE,23,3.0,4.0,51,0.00,,,0.00,Wunderground v.1.15,2013-10-14 18:53:00,
2013-10-14 13:58:00,82.8,62.8,29.94,ENE,63,4.0,4.0,51,0.00,,,0.00,Wunderground v.1.15,2013-10-14 18:58:00,
2013-10-14 14:03:00,82.4,62.5,29.94,NNE,30,3.0,4.0,51,0.00,,,0.00,Wunderground v.1.15,2013-10-14 19:03:00,
2013-10-14 14:08:00,82.5,63.1,29.94,NE,46,3.0,3.0,52,0.00,,,0.00,Wunderground v.1.15,2013-10-14 19:08:00,
2013-10-14 14:13:00,82.6,62.6,29.93,NE,54,3.0,4.0,51,0.00,,,0.00,Wunderground v.1.15,2013-10-14 19:13:00,
2013-10-14 14:18:00,82.2,62.3,29.93,NE,41,3.0,4.0,51,0.00,,,0.00,Wunderground v.1.15,2013-10-14 19:18:00,
2013-10-14 14:23:00,82.2,62.3,29.93,NE,55,2.0,4.0,51,0.00,,,0.00,Wunderground v.1.15,2013-10-14 19:23:00,
2013-10-14 14:28:00,82.5,62.0,29.93,NE,44,2.0,4.0,50,0.00,,,0.00,Wunderground v.1.15,2013-10-14 19:28:00,
2013-10-14 14:33:00,82.6,62.1,29.93,NE,47,2.0,4.0,50,0.00,,,0.00,Wunderground v.1.15,2013-10-14 19:33:00,
2013-10-14 14:38:00,82.7,61.0,29.93,NW,323,2.0,2.0,48,0.00,,,0.00,Wunderground v.1.15,2013-10-14 19:38:00,
2013-10-14 14:43:00,83.0,62.4,29.92,NE,35,2.0,4.0,50,0.00,,,0.00,Wunderground v.1.15,2013-10-14 19:43:00,
2013-10-14 14:48:00,83.8,63.2,29.92,SE,127,1.0,4.0,50,0.00,,,0.00,Wunderground v.1.15,2013-10-14 19:48:00,
2013-10-14 14:53:00,84.3,62.5,29.92,South,186,2.0,4.0,48,0.00,,,0.00,Wunderground v.1.15,2013-10-14 19:53:00,
2013-10-14 14:58:00,84.1,61.1,29.92,ESE,107,3.0,3.0,46,0.00,,,0.00,Wunderground v.1.15,2013-10-14 19:58:00,
2013-10-14 15:03:00,83.8,61.4,29.92,NNE,26,3.0,3.0,47,0.00,,,0.00,Wunderground v.1.15,2013-10-14 20:03:00,
2013-10-14 15:13:00,84.2,64.1,29.91,NE,49,2.0,3.0,51,0.00,,,0.00,Wunderground v.1.15,2013-10-14 20:13:00,
2013-10-14 15:18:00,84.1,63.5,29.91,NE,40,3.0,3.0,50,0.00,,,0.00,Wunderground v.1.15,2013-10-14 20:18:00,
2013-10-14 15:23:00,83.5,62.9,29.91,NNE,19,3.0,3.0,50,0.00,,,0.00,Wunderground v.1.15,2013-10-14 20:23:00,
2013-10-14 15:28:00,82.8,62.8,29.92,NE,36,4.0,5.0,51,0.00,,,0.00,Wunderground v.1.15,2013-10-14 20:28:00,
2013-10-14 15:33:00,82.2,62.8,29.92,ENE,63,3.0,7.0,52,0.00,,,0.00,Wunderground v.1.15,2013-10-14 20:33:00,
2013-10-14 15:38:00,81.7,62.9,29.92,NE,36,3.0,3.0,53,0.00,,,0.00,Wunderground v.1.15,2013-10-14 20:38:00,
2013-10-14 15:43:00,81.5,62.7,29.91,ENE,71,2.0,7.0,53,0.00,,,0.00,Wunderground v.1.15,2013-10-14 20:43:00,
2013-10-14 15:48:00,81.5,63.3,29.91,NE,49,2.0,7.0,54,0.00,,,0.00,Wunderground v.1.15,2013-10-14 20:48:00,
2013-10-14 15:53:00,81.7,63.4,29.91,NE,55,2.0,7.0,54,0.00,,,0.00,Wunderground v.1.15,2013-10-14 20:53:00,
2013-10-14 15:58:00,82.0,63.2,29.91,NNE,32,2.0,7.0,53,0.00,,,0.00,Wunderground v.1.15,2013-10-14 20:58:00,
2013-10-14 16:03:00,82.0,62.6,29.91,NE,34,3.0,7.0,52,0.00,,,0.00,Wunderground v.1.15,2013-10-14 21:03:00,
2013-10-14 16:08:00,82.0,63.7,29.91,NNE,30,3.0,7.0,54,0.00,,,0.00,Wunderground v.1.15,2013-10-14 21:08:00,
2013-10-14 16:13:00,81.8,62.5,29.91,NE,35,3.0,7.0,52,0.00,,,0.00,Wunderground v.1.15,2013-10-14 21:13:00,
2013-10-14 16:18:00,81.7,63.4,29.91,ENE,78,3.0,3.0,54,0.00,,,0.00,Wunderground v.1.15,2013-10-14 21:18:00,
2013-10-14 16:23:00,81.9,63.6,29.91,NE,43,3.0,7.0,54,0.00,,,0.00,Wunderground v.1.15,2013-10-14 21:23:00,
2013-10-14 16:33:00,81.8,63.5,29.91,NNE,22,3.0,7.0,54,0.00,,,0.00,Wunderground v.1.15,2013-10-14 21:33:00,
2013-10-14 16:38:00,81.6,62.3,29.91,NE,50,3.0,3.0,52,0.00,,,0.00,Wunderground v.1.15,2013-10-14 21:38:00,
2013-10-14 16:43:00,81.4,63.2,29.91,NNE,21,3.0,7.0,54,0.00,,,0.00,Wunderground v.1.15,2013-10-14 21:43:00,
2013-10-14 16:48:00,81.3,63.6,29.91,NE,38,3.0,3.0,55,0.00,,,0.00,Wunderground v.1.15,2013-10-14 21:48:00,
2013-10-14 16:53:00,81.0,62.8,29.91,NE,41,3.0,7.0,54,0.00,,,0.00,Wunderground v.1.15,2013-10-14 21:53:00,
2013-10-14 16:58:00,80.8,63.6,29.91,NE,49,2.0,7.0,56,0.00,,,0.00,Wunderground v.1.15,2013-10-14 21:58:00,
2013-10-14 17:03:00,80.7,64.1,29.91,NE,36,2.0,7.0,57,0.00,,,0.00,Wunderground v.1.15,2013-10-14 22:03:00,
2013-10-14 17:08:00,80.5,64.4,29.91,NE,36,2.0,2.0,58,0.00,,,0.00,Wunderground v.1.15,2013-10-14 22:08:00,
2013-10-14 17:13:00,80.2,64.6,29.92,NE,50,2.0,7.0,59,0.00,,,0.00,Wunderground v.1.15,2013-10-14 22:13:00,
2013-10-14 17:18:00,79.9,65.2,29.92,NE,36,2.0,2.0,61,0.00,,,0.00,Wunderground v.1.15,2013-10-14 22:18:00,
2013-10-14 17:23:00,79.6,65.0,29.92,NE,36,1.0,7.0,61,0.00,,,0.00,Wunderground v.1.15,2013-10-14 22:23:00,
2013-10-14 17:28:00,79.1,65.0,29.92,NE,36,1.0,7.0,62,0.00,,,0.00,Wunderground v.1.15,2013-10-14 22:28:00,
2013-10-14 17:33:00,78.8,65.1,29.92,NE,36,1.0,7.0,63,0.00,,,0.00,Wunderground v.1.15,2013-10-14 22:33:00,
2013-10-14 17:38:00,78.4,65.2,29.92,NE,36,1.0,7.0,64,0.00,,,0.00,Wunderground v.1.15,2013-10-14 22:38:00,
2013-10-14 17:43:00,78.2,64.6,29.92,NE,36,1.0,7.0,63,0.00,,,0.00,Wunderground v.1.15,2013-10-14 22:43:00,
2013-10-14 17:48:00,77.9,65.6,29.92,NE,36,1.0,7.0,66,0.00,,,0.00,Wunderground v.1.15,2013-10-14 22:48:00,
2013-10-14 17:53:00,77.5,65.2,29.92,NE,36,1.0,7.0,66,0.00,,,0.00,Wunderground v.1.15,2013-10-14 22:53:00,
2013-10-14 17:58:00,77.0,65.2,29.92,NE,36,1.0,7.0,67,0.00,,,0.00,Wunderground v.1.15,2013-10-14 22:58:00,
2013-10-14 18:03:00,76.7,65.8,29.92,NE,36,1.0,7.0,69,0.00,,,0.00,Wunderground v.1.15,2013-10-14 23:03:00,
2013-10-14 18:08:00,76.4,65.5,29.92,NE,36,1.0,7.0,69,0.00,,,0.00,Wunderground v.1.15,2013-10-14 23:08:00,
2013-10-14 18:13:00,75.9,65.4,29.92,NE,36,1.0,7.0,70,0.00,,,0.00,Wunderground v.1.15,2013-10-14 23:13:00,
2013-10-14 18:18:00,75.5,65.4,29.92,NE,36,1.0,7.0,71,0.00,,,0.00,Wunderground v.1.15,2013-10-14 23:18:00,
2013-10-14 18:23:00,75.0,65.4,29.92,NE,36,1.0,7.0,72,0.00,,,0.00,Wunderground v.1.15,2013-10-14 23:23:00,
2013-10-14 18:28:00,74.6,65.4,29.92,NE,36,1.0,7.0,73,0.00,,,0.00,Wunderground v.1.15,2013-10-14 23:28:00,
2013-10-14 18:33:00,74.2,65.4,29.92,NE,36,1.0,7.0,74,0.00,,,0.00,Wunderground v.1.15,2013-10-14 23:33:00,
2013-10-14 18:38:00,73.7,65.3,29.92,NE,36,1.0,7.0,75,0.00,,,0.00,Wunderground v.1.15,2013-10-14 23:38:00,
2013-10-14 18:43:00,73.2,65.6,29.92,NE,36,1.0,7.0,77,0.00,,,0.00,Wunderground v.1.15,2013-10-14 23:43:00,
2013-10-14 18:48:00,72.6,65.3,29.92,NE,36,1.0,7.0,78,0.00,,,0.00,Wunderground v.1.15,2013-10-14 23:48:00,
2013-10-14 18:53:00,72.1,64.9,29.92,NE,36,1.0,7.0,78,0.00,,,0.00,Wunderground v.1.15,2013-10-14 23:53:00,
2013-10-14 18:58:00,72.0,64.8,29.92,NE,43,1.0,7.0,78,0.00,,,0.00,Wunderground v.1.15,2013-10-14 23:58:00,
2013-10-14 19:03:00,71.8,64.9,29.92,NE,42,1.0,7.0,79,0.00,,,0.00,Wunderground v.1.15,2013-10-15 00:03:00,
2013-10-14 19:08:00,71.7,65.2,29.92,NE,43,1.0,7.0,80,0.00,,,0.00,Wunderground v.1.15,2013-10-15 00:08:00,
2013-10-14 19:13:00,71.5,65.0,29.93,NE,43,1.0,7.0,80,0.00,,,0.00,Wunderground v.1.15,2013-10-15 00:13:00,
2013-10-14 19:18:00,71.3,65.2,29.93,NE,43,1.0,7.0,81,0.00,,,0.00,Wunderground v.1.15,2013-10-15 00:18:00,
2013-10-14 19:23:00,71.1,65.3,29.93,NE,43,1.0,7.0,82,0.00,,,0.00,Wunderground v.1.15,2013-10-15 00:23:00,
2013-10-14 19:28:00,70.8,65.0,29.93,NE,43,1.0,7.0,82,0.00,,,0.00,Wunderground v.1.15,2013-10-15 00:28:00,
2013-10-14 19:33:00,70.6,64.8,29.93,NE,42,1.0,7.0,82,0.00,,,0.00,Wunderground v.1.15,2013-10-15 00:33:00,
2013-10-14 19:38:00,70.4,64.6,29.93,NE,43,1.0,7.0,82,0.00,,,0.00,Wunderground v.1.15,2013-10-15 00:38:00,
2013-10-14 19:43:00,70.4,65.0,29.93,NE,42,1.0,7.0,83,0.00,,,0.00,Wunderground v.1.15,2013-10-15 00:43:00,
2013-10-14 19:53:00,70.1,64.7,29.93,NE,43,1.0,7.0,83,0.00,,,0.00,Wunderground v.1.15,2013-10-15 00:53:00,
2013-10-14 19:58:00,69.9,64.5,29.93,NE,43,1.0,1.0,83,0.00,,,0.00,Wunderground v.1.15,2013-10-15 00:58:00,
2013-10-14 20:03:00,69.7,64.3,29.93,NE,43,0.0,7.0,83,0.00,,,0.00,Wunderground v.1.15,2013-10-15 01:03:00,
2013-10-14 20:08:00,69.5,64.5,29.93,NE,42,0.0,7.0,84,0.00,,,0.00,Wunderground v.1.15,2013-10-15 01:08:00,
2013-10-14 20:13:00,69.3,64.3,29.93,NE,43,1.0,7.0,84,0.00,,,0.00,Wunderground v.1.15,2013-10-15 01:13:00,
2013-10-14 20:18:00,69.1,64.1,29.93,NE,42,1.0,1.0,84,0.00,,,0.00,Wunderground v.1.15,2013-10-15 01:18:00,
2013-10-14 20:28:00,68.8,64.1,29.93,NE,42,0.0,7.0,85,0.00,,,0.00,Wunderground v.1.15,2013-10-15 01:28:00,
2013-10-14 20:33:00,68.7,64.0,29.93,NE,43,0.0,7.0,85,0.00,,,0.00,Wunderground v.1.15,2013-10-15 01:33:00,
2013-10-14 20:38:00,68.4,63.7,29.93,South,173,1.0,7.0,85,0.00,,,0.00,Wunderground v.1.15,2013-10-15 01:38:00,
2013-10-14 20:43:00,68.2,63.5,29.94,ENE,65,1.0,7.0,85,0.00,,,0.00,Wunderground v.1.15,2013-10-15 01:43:00,
2013-10-14 20:48:00,68.2,63.5,29.94,ENE,65,1.0,7.0,85,0.00,,,0.00,Wunderground v.1.15,2013-10-15 01:48:00,
2013-10-14 20:53:00,68.3,63.6,29.94,ENE,64,1.0,7.0,85,0.00,,,0.00,Wunderground v.1.15,2013-10-15 01:53:00,
2013-10-14 20:58:00,68.4,63.7,29.93,ENE,64,1.0,1.0,85,0.00,,,0.00,Wunderground v.1.15,2013-10-15 01:58:00,
2013-10-14 21:03:00,68.5,63.5,29.93,ENE,65,0.0,7.0,84,0.00,,,0.00,Wunderground v.1.15,2013-10-15 02:03:00,
2013-10-14 21:08:00,68.6,63.9,29.93,ENE,64,0.0,7.0,85,0.00,,,0.00,Wunderground v.1.15,2013-10-15 02:08:00,
2013-10-14 21:13:00,68.6,63.9,29.94,ENE,65,0.0,7.0,85,0.00,,,0.00,Wunderground v.1.15,2013-10-15 02:13:00,
2013-10-14 21:18:00,68.6,63.9,29.94,ENE,65,0.0,7.0,85,0.00,,,0.00,Wunderground v.1.15,2013-10-15 02:18:00,
2013-10-14 21:23:00,68.4,63.7,29.94,ENE,64,1.0,7.0,85,0.00,,,0.00,Wunderground v.1.15,2013-10-15 02:23:00,
2013-10-14 21:28:00,68.3,63.9,29.94,ENE,64,1.0,7.0,86,0.00,,,0.00,Wunderground v.1.15,2013-10-15 02:28:00,
2013-10-14 21:33:00,68.1,63.8,29.94,ENE,65,1.0,7.0,86,0.00,,,0.00,Wunderground v.1.15,2013-10-15 02:33:00,
2013-10-14 21:38:00,67.9,63.6,29.94,ENE,64,1.0,1.0,86,0.00,,,0.00,Wunderground v.1.15,2013-10-15 02:38:00,
2013-10-14 21:43:00,67.8,63.5,29.94,ENE,65,0.0,7.0,86,0.00,,,0.00,Wunderground v.1.15,2013-10-15 02:43:00,
2013-10-14 21:48:00,67.6,63.3,29.94,ENE,65,0.0,7.0,86,0.00,,,0.00,Wunderground v.1.15,2013-10-15 02:48:00,
2013-10-14 21:53:00,67.4,63.4,29.94,ENE,64,0.0,7.0,87,0.00,,,0.00,Wunderground v.1.15,2013-10-15 02:53:00,
2013-10-14 21:58:00,67.3,63.3,29.94,ENE,65,0.0,7.0,87,0.00,,,0.00,Wunderground v.1.15,2013-10-15 02:58:00,
2013-10-14 22:03:00,67.2,63.2,29.94,ENE,64,0.0,7.0,87,0.00,,,0.00,Wunderground v.1.15,2013-10-15 03:03:00,
2013-10-14 22:08:00,67.0,63.0,29.94,ENE,64,0.0,7.0,87,0.00,,,0.00,Wunderground v.1.15,2013-10-15 03:08:00,
2013-10-14 22:13:00,66.9,63.2,29.95,ENE,65,0.0,7.0,88,0.00,,,0.00,Wunderground v.1.15,2013-10-15 03:13:00,
2013-10-14 22:18:00,66.8,63.1,29.95,ENE,65,0.0,7.0,88,0.00,,,0.00,Wunderground v.1.15,2013-10-15 03:18:00,
2013-10-14 22:23:00,66.6,62.9,29.95,ENE,65,0.0,7.0,88,0.00,,,0.00,Wunderground v.1.15,2013-10-15 03:23:00,
2013-10-14 22:28:00,66.5,62.8,29.95,ENE,64,0.0,7.0,88,0.00,,,0.00,Wunderground v.1.15,2013-10-15 03:28:00,
2013-10-14 22:33:00,66.3,62.6,29.95,ENE,64,0.0,7.0,88,0.00,,,0.00,Wunderground v.1.15,2013-10-15 03:33:00,
2013-10-14 22:38:00,66.2,62.5,29.95,ENE,64,0.0,7.0,88,0.00,,,0.00,Wunderground v.1.15,2013-10-15 03:38:00,
2013-10-14 22:43:00,66.0,62.7,29.95,ENE,65,0.0,7.0,89,0.00,,,0.00,Wunderground v.1.15,2013-10-15 03:43:00,
2013-10-14 22:48:00,65.9,62.6,29.95,ENE,64,0.0,7.0,89,0.00,,,0.00,Wunderground v.1.15,2013-10-15 03:48:00,
2013-10-14 22:53:00,65.8,62.5,29.95,ENE,65,1.0,7.0,89,0.00,,,0.00,Wunderground v.1.15,2013-10-15 03:53:00,
2013-10-14 22:58:00,65.6,62.3,29.95,ENE,65,1.0,7.0,89,0.00,,,0.00,Wunderground v.1.15,2013-10-15 03:58:00,
2013-10-14 23:03:00,65.6,62.6,29.95,ENE,65,1.0,7.0,90,0.00,,,0.00,Wunderground v.1.15,2013-10-15 04:03:00,
2013-10-14 23:08:00,65.6,62.6,29.95,ENE,64,1.0,7.0,90,0.00,,,0.00,Wunderground v.1.15,2013-10-15 04:08:00,
2013-10-14 23:13:00,65.5,62.5,29.95,ENE,64,1.0,7.0,90,0.00,,,0.00,Wunderground v.1.15,2013-10-15 04:13:00,
2013-10-14 23:18:00,65.5,62.5,29.95,ENE,64,1.0,7.0,90,0.00,,,0.00,Wunderground v.1.15,2013-10-15 04:18:00,
2013-10-14 23:23:00,65.5,62.5,29.95,ENE,65,1.0,7.0,90,0.00,,,0.00,Wunderground v.1.15,2013-10-15 04:23:00,
2013-10-14 23:28:00,65.4,62.4,29.94,ENE,65,0.0,7.0,90,0.00,,,0.00,Wunderground v.1.15,2013-10-15 04:28:00,
2013-10-14 23:33:00,65.4,62.4,29.94,ENE,65,0.0,7.0,90,0.00,,,0.00,Wunderground v.1.15,2013-10-15 04:33:00,
2013-10-14 23:38:00,65.3,62.3,29.94,ENE,65,1.0,7.0,90,0.00,,,0.00,Wunderground v.1.15,2013-10-15 04:38:00,
2013-10-14 23:43:00,65.2,62.2,29.94,ENE,64,1.0,7.0,90,0.00,,,0.00,Wunderground v.1.15,2013-10-15 04:43:00,
2013-10-14 23:48:00,65.1,61.8,29.94,ENE,65,0.0,7.0,89,0.00,,,0.00,Wunderground v.1.15,2013-10-15 04:48:00,
2013-10-14 23:58:00,64.9,61.9,29.94,ENE,64,0.0,7.0,90,0.00,,,0.00,Wunderground v.1.15,2013-10-15 04:58:00,